{"data":{"norad_id":46174,"intl_designator":"2020-057BK","name":"STARLINK-1641","alt_names":[],"object_type":"PAYLOAD","status":"ACTIVE","operator":null,"country":"US","launch_date":"2020-08-18","launch_site_code":"AFETR","launch_vehicle":null,"mission":null,"orbit_class":"UNKNOWN","rcs_meters":null,"size_class":null,"mass_kg":null,"dimensions":null,"purposes":["comms"],"wikipedia_slug":null,"has_3d_model":false,"image_url":null,"decayed_at":null,"tle_current":{"epoch":"2026-05-24T18:02:42.045792Z","epoch_age_seconds":96548,"freshness":"FRESH","line1":"1 46174U 20057BK  26144.75187553  .00041481  00000+0  57497-3 0  9996","line2":"2 46174  53.0477 277.9880 0002125 205.1231 154.9676 15.56677038318339","mean_motion":15.56677038,"eccentricity":0.0002125,"inclination_deg":53.0477,"raan_deg":277.988,"arg_perigee_deg":205.1231,"mean_anomaly_deg":154.9676,"bstar":0.00057497,"rev_number":31833,"period_min":92.504737003771,"perigee_km":395.84228740985,"apogee_km":398.72184051203,"semimajor_km":6775.4190639609,"source":"CELESTRAK","updated_at":"2026-05-25T13:38:16.469563Z"}}}